[[{"header":{"parameterUnit":"m.s-1","parameterCategory":1,"la1":30.2991,"la2":30.254,"lo1":-89.0895,"lo2":-89.0444,"dy":0.0017,"dx":0.0017,"nx":28,"ny":28,"refTime":"2025-04-11T21:00:00:Z","depth":0,"parameterNumber":2,"parameterNumberName":"U-component_of_WINDS"},"data":[0,0,0,0,0,0,0,0,0,0,0,0,0,0,0,0,0,0,0,0,0,0,0,0,0,0,0,0,0,0,0,0,0,0,0,0,0,0,0,0,0,0,0,0,0,0,0,0,0,0,0,0,0,0,0,0,0,0,2.8833,2.8834,0,2.8856,2.8856,2.8856,2.8816,2.8815,2.8813,2.8812,2.8835,2.8836,2.8838,0,0,0,0,0,0,0,0,0,0,0,0,0,2.8757,2.8758,2.8833,2.8834,2.8834,2.8856,2.8856,2.8856,2.8816,2.8815,2.8813,2.8812,2.8834,2.8836,2.8838,0,0,0,0,0,0,0,0,0,0,0,0,0,2.8786,2.8759,2.8833,2.8817,2.8815,2.8856,2.8856,2.8856,2.8817,2.8815,2.8813,2.8811,2.8833,2.8836,2.8839,2.8896,0,0,2.8847,2.8848,0,0,0,0,0,0,0,0,2.8784,2.8789,2.8819,2.8818,2.8817,2.8831,2.8837,2.887,2.8817,2.8816,2.8812,2.881,2.8835,2.8838,2.8846,2.8897,2.8898,2.8847,2.8849,2.885,2.8851,0,0,0,0,0,0,0,2.8782,2.8787,2.8842,2.8819,2.8818,2.8808,2.881,2.8843,2.8837,2.8816,2.8813,2.8817,2.8834,2.8844,2.8846,2.8898,2.8847,2.885,2.8851,2.8853,2.8998,2.9,0,0,0,0,0,0,2.8782,2.8786,2.8841,2.8843,2.8795,2.8811,2.8813,2.8828,2.8836,2.8835,2.8818,2.8815,2.884,2.8843,2.8847,2.8915,2.885,2.8853,2.8854,2.8995,2.8998,2.9,0,0,0,0,0,0,2.8781,2.8788,2.8841,2.8814,2.882,2.8815,2.8832,2.883,2.8839,2.8838,2.8836,2.8829,2.8838,2.8843,2.8884,2.8915,2.8854,2.8857,2.8993,2.8996,2.8999,2.905,0,0,0,0,0,0,2.8779,2.8787,2.8809,2.8814,2.8821,2.8878,2.8834,2.8832,2.8844,2.884,2.8848,2.8847,2.8837,2.888,2.8887,2.8917,2.8859,2.899,2.8994,2.8998,2.9046,2.9055,2.9063,0,0,0,0,0,2.8776,2.8822,2.881,2.8817,2.8848,2.8879,2.8883,2.8871,2.8847,2.8869,2.8868,2.8847,2.8911,2.8885,2.8892,2.8924,2.8988,2.8993,2.8998,2.9042,2.9053,2.9063,0,0,0,0,0,0,2.882,2.8823,2.8809,2.8858,2.8869,2.8873,2.8899,2.8883,2.8901,2.8896,2.888,2.8882,2.8926,2.8929,2.8901,2.898,2.8945,2.8952,2.8976,2.8987,2.8995,2.8993,2.8861,0,0,0,0,0,2.8835,2.8861,2.8861,2.8905,2.8911,2.8905,2.8918,2.8908,2.8918,2.8922,2.8924,2.8935,2.8957,2.8972,2.8993,2.9046,2.9047,2.9072,2.908,2.9087,2.9093,2.9122,2.9133,2.9017,2.9017,2.9017,0,0,2.8867,2.8872,2.8889,2.8914,2.8921,2.8947,2.8908,2.8938,2.8957,2.8926,2.8965,2.8967,2.8978,2.9026,2.9047,2.903,2.9125,2.9093,2.9099,2.9101,2.9128,2.9139,2.9149,2.902,2.9019,2.9019,0,0,2.8939,2.8945,2.8982,2.899,2.9002,2.8997,2.9006,2.9012,2.9013,2.9052,2.9029,2.9052,2.9091,2.91,2.9109,2.9186,2.9167,2.9193,2.9237,2.9265,2.9274,2.9282,2.9309,2.9319,2.9199,2.9199,2.9199,0,2.8978,2.9017,2.9003,2.9035,2.9046,2.902,2.9057,2.9066,2.9083,2.9092,2.9072,2.9121,2.9127,2.9176,2.9195,2.9204,2.9213,2.9192,2.9274,2.9282,2.9289,2.9315,2.9325,2.9202,2.9201,2.9201,2.9201,0,2.9063,2.9091,2.9119,2.9137,2.9152,2.9187,2.9178,2.9195,2.9184,2.9182,2.9222,2.9228,2.9249,2.9261,2.925,2.9309,2.9298,2.9276,2.9241,2.9303,2.9327,2.9337,2.9206,2.9205,2.9204,2.9203,0,0,2.9163,2.9173,2.9184,2.9192,2.9203,2.9224,2.9257,2.9278,2.9293,2.9306,2.9334,2.9368,2.9348,2.9359,2.9349,2.9374,2.9435,2.935,2.935,2.9365,2.95,2.9516,2.9528,2.9423,2.9424,2.9426,2.9499,0,2.9234,2.9291,2.9281,2.9337,2.9362,2.9338,2.9367,2.9377,2.9376,2.9397,2.9396,2.942,2.9393,2.9399,2.9423,2.9422,2.9461,2.9417,2.9448,2.9449,2.9445,2.954,2.9557,2.9626,2.9508,2.951,2.9511,0,2.9325,2.9342,2.94,2.9408,2.9418,2.9444,2.9463,2.9484,2.9495,2.9492,2.9505,2.9491,2.9524,2.9489,2.9535,2.9505,2.9517,2.9518,2.9521,2.9523,2.9484,2.9544,2.9647,2.9657,2.9526,2.9525,2.9524,0,2.9391,2.9429,2.9469,2.9476,2.9486,2.9505,2.951,2.9519,2.9533,2.9549,2.9558,2.9578,2.9589,2.9605,2.9597,2.9572,2.9644,2.9608,2.9643,2.9643,2.9659,2.9658,2.9764,2.9667,2.9667,2.9667,2.9667,0,2.9472,2.9509,2.9499,2.9523,2.9564,2.9552,2.9592,2.9594,2.9603,2.9627,2.9607,2.9631,2.9619,2.9641,2.9635,2.9674,2.9679,2.9678,2.9675,2.9679,2.9679,2.9687,2.9681,2.967,2.9669,2.9668,2.9668,0,2.9553,2.9548,2.9589,2.9596,2.9598,2.9628,2.9633,2.9656,2.9654,2.9685,2.9692,2.9688,2.9714,2.9707,2.9735,2.9731,2.978,2.9772,2.9776,2.9774,2.9809,2.9806,2.9924,2.9939,2.9832,2.9833,2.9834,0,2.9604,2.9632,2.9641,2.9656,2.9663,2.9688,2.9702,2.9691,2.9706,2.9721,2.9743,2.9767,2.9785,2.9827,2.9827,2.9849,2.9841,2.9881,2.9844,2.9847,2.9841,2.9839,2.9842,2.9888,2.9889,2.989,2.9891,0,2.9696,2.9692,2.9713,2.9734,2.9751,2.9767,2.9781,2.9794,2.9784,2.9803,2.9829,2.9844,2.9872,2.9896,2.9916,2.9921,2.9905,2.9903,2.9912,2.9916,2.9917,2.9917,2.9796,2.99,2.9899,2.9898,2.9898,2.9897,2.9764,2.9787,2.9798,2.9822,2.9831,2.9845,2.9867,2.9868,2.9889,2.9912,2.9905,2.9935,2.9945,2.997,2.9978,3.0001,2.9986,2.9999,3.0002,3.0006,3.001,2.9914,3.0004,3.0004,3.0004,3.0004,3.0004,0,2.9854,2.986,2.9883,2.9903,2.9922,2.9905,2.992,2.9937,2.9964,2.9975,2.9994,3.0024,3.0048,3.005,3.0072,3.009,3.0083,3.0096,3.0095,3.0096,3.0022,3.0012,3.0102,3.0102,3.0102,3.0102,3.0102,3.0102,2.9904,2.9943,2.9941,2.9985,2.999,3.002,3.0029,3.0042,3.0051,3.0086,3.0105,3.0107,3.0115,3.0137,3.0158,3.0158,3.0167,3.0183,3.018,3.0111,3.0101,3.0092,3.0082,3.0185,3.0185,3.0252,3.0253,3.0253]},{"header":{"parameterUnit":"m.s-1","parameterCategory":1,"la1":30.2991,"la2":30.254,"lo1":-89.0895,"lo2":-89.0444,"dy":0.0017,"dx":0.0017,"nx":28,"ny":28,"refTime":"2025-04-11T21:00:00:Z","depth":0,"parameterNumber":3,"parameterNumberName":"V-component_of_WINDS"},"data":[0,0,0,0,0,0,0,0,0,0,0,0,0,0,0,0,0,0,0,0,0,0,0,0,0,0,0,0,0,0,0,0,0,0,0,0,0,0,0,0,0,0,0,0,0,0,0,0,0,0,0,0,0,0,0,0,0,0,-5.3214,-5.3214,0,-5.3226,-5.3226,-5.3226,-5.3144,-5.3142,-5.314,-5.3138,-5.3148,-5.315,-5.3152,0,0,0,0,0,0,0,0,0,0,0,0,0,-5.3121,-5.3123,-5.3214,-5.3214,-5.3215,-5.3226,-5.3226,-5.3226,-5.3145,-5.3142,-5.3139,-5.3137,-5.3147,-5.315,-5.3152,0,0,0,0,0,0,0,0,0,0,0,0,0,-5.315,-5.3124,-5.3214,-5.3175,-5.3172,-5.3225,-5.3226,-5.3226,-5.3145,-5.3142,-5.3138,-5.3135,-5.3146,-5.3149,-5.3153,-5.3244,0,0,-5.3164,-5.3165,0,0,0,0,0,0,0,0,-5.3148,-5.3153,-5.3181,-5.3178,-5.3175,-5.318,-5.3196,-5.3232,-5.3146,-5.3155,-5.3138,-5.3134,-5.3161,-5.3163,-5.3173,-5.3244,-5.3244,-5.3164,-5.3166,-5.3168,-5.3169,0,0,0,0,0,0,0,-5.3146,-5.3152,-5.3219,-5.3182,-5.3178,-5.3157,-5.3157,-5.3203,-5.3177,-5.3154,-5.3149,-5.3151,-5.3159,-5.317,-5.3172,-5.3245,-5.3164,-5.3167,-5.3169,-5.3171,-5.339,-5.3393,0,0,0,0,0,0,-5.315,-5.3151,-5.3218,-5.3219,-5.3153,-5.3161,-5.3162,-5.3182,-5.3177,-5.3172,-5.3154,-5.3147,-5.3165,-5.3168,-5.3172,-5.3277,-5.3168,-5.3171,-5.3173,-5.3386,-5.3391,-5.3394,0,0,0,0,0,0,-5.3148,-5.3156,-5.3218,-5.3183,-5.319,-5.3167,-5.319,-5.3184,-5.3194,-5.3176,-5.3171,-5.317,-5.3162,-5.3167,-5.3226,-5.3277,-5.3173,-5.3176,-5.3382,-5.3387,-5.3392,-5.3489,0,0,0,0,0,0,-5.3146,-5.3156,-5.3191,-5.3185,-5.3192,-5.3272,-5.3193,-5.3186,-5.3201,-5.3192,-5.319,-5.3186,-5.316,-5.3221,-5.323,-5.328,-5.3179,-5.3377,-5.3384,-5.3391,-5.3481,-5.3497,-5.351,0,0,0,0,0,-5.3143,-5.3217,-5.3193,-5.3202,-5.3235,-5.3275,-5.3279,-5.3248,-5.3206,-5.324,-5.3228,-5.3186,-5.327,-5.3228,-5.3237,-5.3289,-5.3374,-5.3382,-5.339,-5.3474,-5.3494,-5.351,0,0,0,0,0,0,-5.3229,-5.3216,-5.3189,-5.3264,-5.3272,-5.3262,-5.3304,-5.327,-5.329,-5.3281,-5.3241,-5.3241,-5.3306,-5.3303,-5.3257,-5.3376,-5.3314,-5.3325,-5.3375,-5.3393,-5.3408,-5.3407,-5.3182,0,0,0,0,0,-5.3257,-5.3292,-5.3278,-5.3346,-5.3351,-5.3327,-5.3344,-5.3319,-5.3325,-5.3328,-5.332,-5.3327,-5.3355,-5.3374,-5.3399,-5.348,-5.3478,-5.352,-5.3535,-5.3547,-5.3556,-5.3598,-5.3616,-5.3422,-5.3421,-5.3421,0,0,-5.3315,-5.3312,-5.3336,-5.3363,-5.3366,-5.3402,-5.333,-5.3372,-5.3398,-5.3334,-5.3389,-5.3384,-5.3389,-5.346,-5.349,-5.3459,-5.361,-5.3558,-5.3567,-5.357,-5.3609,-5.3627,-5.3644,-5.3427,-5.3426,-5.3425,0,0,-5.3439,-5.3441,-5.3497,-5.3502,-5.3507,-5.3491,-5.3504,-5.35,-5.3494,-5.3549,-5.3502,-5.3532,-5.3581,-5.3586,-5.3595,-5.3722,-5.3684,-5.3731,-5.3807,-5.3849,-5.3864,-5.3878,-5.3922,-5.3938,-5.374,-5.374,-5.3741,0,-5.351,-5.3563,-5.353,-5.3575,-5.3587,-5.3532,-5.3588,-5.3594,-5.3607,-5.3617,-5.3582,-5.3642,-5.3642,-5.3712,-5.3743,-5.3753,-5.3766,-5.373,-5.3865,-5.3878,-5.389,-5.3932,-5.3948,-5.3746,-5.3745,-5.3745,-5.3744,0,-5.365,-5.3687,-5.3732,-5.3747,-5.3765,-5.3815,-5.3789,-5.3811,-5.3785,-5.3772,-5.3828,-5.3826,-5.3849,-5.3864,-5.3839,-5.3931,-5.3912,-5.3872,-5.3809,-5.3915,-5.3953,-5.3969,-5.3754,-5.3752,-5.375,-5.3749,0,0,-5.3828,-5.3824,-5.384,-5.3846,-5.3849,-5.3877,-5.3924,-5.3947,-5.3966,-5.3978,-5.4016,-5.4059,-5.4021,-5.4032,-5.4007,-5.4044,-5.4143,-5.3999,-5.3999,-5.4025,-5.4243,-5.4273,-5.4292,-5.4118,-5.4121,-5.4124,-5.4243,0,-5.3948,-5.4029,-5.4,-5.4083,-5.4117,-5.4065,-5.4106,-5.4112,-5.4101,-5.4128,-5.4116,-5.4146,-5.4096,-5.4102,-5.4136,-5.4124,-5.4186,-5.4115,-5.4153,-5.4154,-5.4152,-5.4312,-5.4343,-5.4455,-5.4257,-5.426,-5.4262,0,-5.4098,-5.4116,-5.4202,-5.4198,-5.4211,-5.4249,-5.4267,-5.4294,-5.4299,-5.4289,-5.4301,-5.4268,-5.4314,-5.4253,-5.4314,-5.4267,-5.4281,-5.4277,-5.4281,-5.4282,-5.4214,-5.4317,-5.449,-5.4507,-5.4285,-5.4283,-5.4282,0,-5.4218,-5.4263,-5.4321,-5.4327,-5.4325,-5.4352,-5.4352,-5.4354,-5.437,-5.4386,-5.4395,-5.4416,-5.4428,-5.4445,-5.4419,-5.4377,-5.4484,-5.4421,-5.4476,-5.4477,-5.45,-5.4499,-5.4677,-5.4511,-5.4511,-5.4511,-5.451,0,-5.4354,-5.4409,-5.4374,-5.4409,-5.4469,-5.4435,-5.4495,-5.4489,-5.4491,-5.4524,-5.448,-5.4512,-5.4476,-5.4504,-5.4484,-5.4538,-5.4543,-5.4536,-5.4529,-5.4539,-5.454,-5.4546,-5.4537,-5.4515,-5.4514,-5.4513,-5.4512,0,-5.4497,-5.4477,-5.4536,-5.4528,-5.4528,-5.4572,-5.4565,-5.4597,-5.4584,-5.4626,-5.4633,-5.4612,-5.4643,-5.4619,-5.4649,-5.4635,-5.4706,-5.4689,-5.4705,-5.4699,-5.4756,-5.475,-5.4944,-5.4967,-5.4788,-5.4789,-5.4791,0,-5.4585,-5.4626,-5.4623,-5.4642,-5.4645,-5.4676,-5.4692,-5.4661,-5.4679,-5.4688,-5.4719,-5.4746,-5.4765,-5.4817,-5.4803,-5.4826,-5.4809,-5.4875,-5.4812,-5.482,-5.4808,-5.4806,-5.4809,-5.4888,-5.489,-5.4892,-5.4893,0,-5.4743,-5.4731,-5.4755,-5.4776,-5.4796,-5.4812,-5.4823,-5.4841,-5.4809,-5.4832,-5.4862,-5.4878,-5.4909,-5.4936,-5.4954,-5.4953,-5.4918,-5.4913,-5.4927,-5.4936,-5.4943,-5.4939,-5.4738,-5.4909,-5.4907,-5.4906,-5.4905,-5.4904,-5.486,-5.4893,-5.4897,-5.4926,-5.4931,-5.4943,-5.4972,-5.4963,-5.4988,-5.5011,-5.4991,-5.5028,-5.5032,-5.5053,-5.5057,-5.5085,-5.5057,-5.5077,-5.5082,-5.5087,-5.5095,-5.494,-5.5088,-5.5087,-5.5087,-5.5087,-5.5086,0,-5.5014,-5.5014,-5.5041,-5.5058,-5.5081,-5.5047,-5.5058,-5.5079,-5.5112,-5.5119,-5.5139,-5.5175,-5.5201,-5.519,-5.5213,-5.5238,-5.5222,-5.5244,-5.5242,-5.5242,-5.5119,-5.5104,-5.5257,-5.5257,-5.5257,-5.5257,-5.5257,-5.5257,-5.5097,-5.5152,-5.514,-5.5197,-5.5196,-5.5232,-5.5241,-5.5252,-5.5257,-5.5299,-5.532,-5.5313,-5.5313,-5.5335,-5.5358,-5.5354,-5.5364,-5.5392,-5.5382,-5.5267,-5.5251,-5.5235,-5.522,-5.5395,-5.5395,-5.5503,-5.5504,-5.5505]}]]